Location: Opava
(49.9500°N, 17.9170°E)
Time: 10:11:34
(UTC+01:00)

ISS - Visible Passes

Search period start: 28 November 2020 00:00
Search period end: 08 December 2020 00:00
Orbit: 418 x 420 km, 51.6° (Epoch: 28 November)

Date Brightness Start Highest point End Pass type
(mag) Time Alt. Az. Time Alt. Az. Time Alt. Az.
28 Nov -3.7 16:37:25 10° WSW 16:40:47 81° SSE 16:43:59 11° ENE visible
28 Nov -2.8 18:14:22 10° W 18:16:57 46° WNW 18:16:57 46° WNW visible
29 Nov -3.7 17:26:47 10° W 17:30:08 64° N 17:31:17 36° ENE visible
29 Nov -0.5 19:03:42 10° WNW 19:04:15 14° WNW 19:04:15 14° WNW visible
30 Nov -3.7 16:39:11 10° W 16:42:33 70° N 16:45:39 12° ENE visible
30 Nov -2.7 18:16:10 10° WNW 18:18:36 44° WNW 18:18:36 44° WNW visible
01 Dec -3.7 17:28:35 10° WNW 17:31:57 65° N 17:32:59 39° ENE visible
01 Dec -0.5 19:05:27 10° WNW 19:05:57 13° WNW 19:05:57 13° WNW visible
02 Dec -3.6 16:40:59 10° W 16:44:20 63° N 16:47:24 12° E visible
02 Dec -2.7 18:17:53 10° WNW 18:20:22 46° W 18:20:22 46° W visible
03 Dec -3.9 17:30:18 10° WNW 17:33:41 87° NNE 17:34:51 38° ESE visible
03 Dec -0.4 19:07:20 10° W 19:07:49 13° W 19:07:49 13° W visible
04 Dec -3.8 16:42:42 10° WNW 16:46:04 73° N 16:49:25 10° E visible
04 Dec -2.4 18:19:36 10° W 18:22:24 37° SW 18:22:24 37° SW visible
05 Dec -3.2 17:31:58 10° WNW 17:35:15 54° SSW 17:37:06 23° SE visible
05 Dec -0.3 19:09:56 10° WSW 19:10:05 10° WSW 19:10:05 10° WSW visible
06 Dec -3.6 16:44:20 10° WNW 16:47:42 74° SSW 16:51:03 10° ESE visible
06 Dec -1.3 18:21:39 10° W 18:24:06 19° SW 18:24:59 17° SSW visible
07 Dec -1.7 17:33:44 10° W 17:36:39 27° SW 17:39:32 10° SSE visible
